Location: Newark
(45.5000°N, 11.4167°E)
Time: 15:32:57
(UTC+00:00)

Vanguard 3 - Pass Details

Date: 25 August 2019
Orbit: 508 x 3263 km, 33.4° (Epoch: 14 September)

Event Time Altitude Azimuth Distance (km) Brightness Sun altitude
Rises 17:12:11 0° 249° (WSW) 4,517 12.2 8.3°
Reaches altitude 10° 17:16:23 10° 238° (WSW) 3,046 11.0 7.6°
Maximum altitude 17:21:46 24° 187° (S) 1,666 8.8 6.7°
Drops below altitude 10° 17:25:35 10° 133° (SE) 2,078 8.8 6.0°
Sets 17:27:52 0° 118° (ESE) 2,807 9.3 5.6°
